TimeCST,TemperatureF,Dew PointF,Humidity,Sea Level PressureIn,VisibilityMPH,Wind Direction,Wind SpeedMPH,Gust SpeedMPH,PrecipitationIn,Events,Conditions,WindDirDegrees,DateUTC
12:53 AM,36.0,12.0,37,30.22,10.0,North,8.1,-,N/A,,Clear,10,2012-12-20 06:53:00
1:53 AM,30.9,10.9,43,30.25,10.0,NNW,6.9,-,N/A,,Clear,340,2012-12-20 07:53:00
2:53 AM,30.0,10.0,43,30.28,10.0,NNW,4.6,-,N/A,,Clear,330,2012-12-20 08:53:00
3:53 AM,25.0,8.1,49,30.32,10.0,NNW,8.1,-,N/A,,Clear,330,2012-12-20 09:53:00
4:53 AM,26.1,8.1,47,30.35,10.0,North,8.1,-,N/A,,Clear,350,2012-12-20 10:53:00
5:53 AM,24.1,7.0,48,30.38,10.0,North,8.1,-,N/A,,Clear,350,2012-12-20 11:53:00
6:53 AM,21.9,6.1,51,30.41,10.0,NNW,3.5,-,N/A,,Clear,340,2012-12-20 12:53:00
7:53 AM,19.0,5.0,54,30.46,10.0,WNW,6.9,-,N/A,,Clear,290,2012-12-20 13:53:00
8:53 AM,28.0,6.1,39,30.48,10.0,West,4.6,-,N/A,,Clear,260,2012-12-20 14:53:00
9:53 AM,35.1,5.0,28,30.50,10.0,WNW,5.8,-,N/A,,Clear,290,2012-12-20 15:53:00
10:53 AM,37.9,3.0,23,30.50,10.0,South,3.5,-,N/A,,Clear,180,2012-12-20 16:53:00
11:53 AM,41.0,3.9,21,30.49,10.0,Variable,4.6,-,N/A,,Clear,0,2012-12-20 17:53:00
12:53 PM,44.1,3.9,19,30.47,10.0,SSW,6.9,-,N/A,,Clear,210,2012-12-20 18:53:00
1:53 PM,45.0,3.0,18,30.44,10.0,Variable,4.6,-,N/A,,Clear,0,2012-12-20 19:53:00
2:53 PM,46.9,1.9,16,30.41,10.0,SW,4.6,-,N/A,,Clear,230,2012-12-20 20:53:00
3:53 PM,48.9,1.0,14,30.41,10.0,Calm,Calm,-,N/A,,Clear,0,2012-12-20 21:53:00
4:53 PM,48.0,1.0,14,30.40,10.0,Calm,Calm,-,N/A,,Clear,0,2012-12-20 22:53:00
5:53 PM,46.0,-0.0,15,30.40,10.0,Calm,Calm,-,N/A,,Clear,0,2012-12-20 23:53:00
6:53 PM,39.9,-0.0,19,30.44,10.0,SSE,4.6,-,N/A,,Clear,160,2012-12-21 00:53:00
7:53 PM,35.1,1.0,24,30.47,7.0,SSE,4.6,-,N/A,,Clear,150,2012-12-21 01:53:00
8:53 PM,32.0,-0.0,26,30.46,10.0,SE,3.5,-,N/A,,Clear,130,2012-12-21 02:53:00
9:53 PM,28.0,-2.0,27,30.46,10.0,SE,3.5,-,N/A,,Clear,130,2012-12-21 03:53:00
10:53 PM,24.1,-4.0,29,30.46,10.0,East,3.5,-,N/A,,Clear,100,2012-12-21 04:53:00
11:53 PM,21.0,-4.0,33,30.46,10.0,North,5.8,-,N/A,,Clear,10,2012-12-21 05:53:00